Location: 埔里
(23.9503°N, 120.9728°E)
Time: 17:09:31
(UTC+08:00)

Hubble Space Telescope - Visible Passes

Search period start: 04 August 2020 00:00
Search period end: 14 August 2020 00:00
Orbit: 536 x 540 km, 28.5° (Epoch: 03 August)

Date Brightness Start Highest point End Pass type
(mag) Time Alt. Az. Time Alt. Az. Time Alt. Az.
06 Aug 1.6 04:57:31 10° SW 05:01:25 41° SSE 05:05:19 10° E visible
07 Aug 3.6 03:11:43 10° ESE 03:11:43 10° ESE 03:11:48 10° ESE visible
07 Aug 1.2 04:47:03 12° SW 04:50:41 54° SSE 04:54:43 10° E visible
08 Aug 3.7 03:01:39 11° ESE 03:01:39 11° ESE 03:01:51 10° ESE visible
08 Aug 0.9 04:36:58 18° WSW 04:39:59 68° SSE 04:44:05 10° ENE visible
09 Aug 3.8 02:51:33 10° E 02:51:33 10° E 02:51:35 10° E visible
09 Aug 0.7 04:26:52 24° WSW 04:29:17 85° SSE 04:33:25 10° ENE visible
10 Aug 0.7 04:16:45 32° W 04:18:36 80° NNW 04:22:44 10° ENE visible
11 Aug 0.9 04:06:36 40° W 04:07:55 67° NNW 04:12:02 10° ENE visible
12 Aug 1.1 03:56:27 47° WNW 03:57:16 58° NNW 04:01:21 10° ENE visible
13 Aug 1.2 03:46:19 50° NNW 03:46:37 51° N 03:50:39 10° ENE visible
